When you browse on this site, cookies collect data to enhance your experience and personalize the content and advertising you see.
Visit our Privacy Policy to learn more. By continuing to use the site, you agree to this use of cookies and data.
  • In Hungary
  • List of Countries
  • For 7 days
  • Water Temperature
  • Weather Map
  • News
  • Weather Widgets
  • user-avatar
    Login

    Hourly Weather Emporia

    Today, 21 November, Thursday

    Time Temperature Precipitation Wind Pressure Humidity
    00:00 +17°C° 0 mm 8 mps 725 mmHg 86%
    01:00 +16°C° 0.5 mm 8 mps 726 mmHg 86%
    02:00 +16°C° 0.5 mm 8 mps 726 mmHg 85%
    03:00 +16°C° 0.5 mm 8 mps 726 mmHg 85%
    04:00 +12°C° 0.1 mm 8 mps 727 mmHg 82%
    05:00 +10°C° 0.1 mm 8 mps 728 mmHg 78%
    06:00 +6°C° 0.1 mm 7 mps 729 mmHg 75%
    07:00 +6°C° 0 mm 7 mps 730 mmHg 74%
    08:00 +5°C° 0 mm 7 mps 730 mmHg 72%
    09:00 +5°C° 0 mm 7 mps 731 mmHg 71%
    10:00 +7°C° 0 mm 6 mps 731 mmHg 68%
    11:00 +8°C° 0 mm 6 mps 732 mmHg 65%
    12:00 +9°C° 0 mm 6 mps 732 mmHg 62%
    13:00 +9°C° 0 mm 6 mps 732 mmHg 61%
    14:00 +9°C° 0 mm 6 mps 732 mmHg 60%
    15:00 +9°C° 0 mm 6 mps 732 mmHg 59%
    16:00 +8°C° 0 mm 6 mps 732 mmHg 61%
    17:00 +7°C° 0 mm 5 mps 733 mmHg 63%
    18:00 +6°C° 0 mm 4 mps 733 mmHg 65%
    19:00 +5°C° 0.2 mm 5 mps 733 mmHg 67%
    20:00 +3°C° 0.2 mm 5 mps 734 mmHg 70%
    21:00 +2°C° 0.2 mm 5 mps 734 mmHg 72%
    22:00 +2°C° 0 mm 5 mps 734 mmHg 71%
    23:00 +2°C° 0 mm 5 mps 734 mmHg 70%

    Tomorrow, 22 November, Friday

    Time Temperature Precipitation Wind Pressure Humidity
    00:00 +2°C° 0 mm 5 mps 735 mmHg 70%
    01:00 +1°C° 0 mm 5 mps 734 mmHg 71%
    02:00 +1°C° 0 mm 4 mps 734 mmHg 72%
    03:00 +1°C° 0 mm 4 mps 734 mmHg 73%
    04:00 0°C° 0 mm 4 mps 734 mmHg 73%
    05:00 0°C° 0 mm 5 mps 734 mmHg 73%
    06:00 0°C° 0 mm 5 mps 735 mmHg 73%
    07:00 0°C° 0 mm 4 mps 735 mmHg 75%
    08:00 0°C° 0 mm 4 mps 735 mmHg 77%
    09:00 +1°C° 0 mm 3 mps 735 mmHg 78%
    10:00 0°C° 0.1 mm 4 mps 735 mmHg 77%
    11:00 0°C° 0.1 mm 4 mps 735 mmHg 77%
    12:00 -1°C° 0.1 mm 4 mps 734 mmHg 76%
    13:00 -1°C° 0.1 mm 4 mps 734 mmHg 76%
    14:00 -1°C° 0.1 mm 4 mps 733 mmHg 75%
    15:00 -1°C° 0.1 mm 4 mps 732 mmHg 75%
    16:00 0°C° 0 mm 3 mps 732 mmHg 78%
    17:00 -1°C° 0 mm 3 mps 732 mmHg 81%
    18:00 -1°C° 0 mm 2 mps 732 mmHg 84%
    19:00 -2°C° 0 mm 2 mps 732 mmHg 86%
    20:00 0°C° 0 mm 1 mps 732 mmHg 88%
    21:00 0°C° 0 mm 1 mps 731 mmHg 90%
    22:00 0°C° 0 mm 1 mps 731 mmHg 88%
    23:00 0°C° 0 mm 1 mps 731 mmHg 86%

    Day after tomorrow, 23 November, Saturday

    Time Temperature Precipitation Wind Pressure Humidity
    00:00 -1°C° 0 mm 2 mps 731 mmHg 84%
    01:00 -1°C° 0 mm 2 mps 730 mmHg 85%
    02:00 -1°C° 0 mm 2 mps 730 mmHg 86%
    03:00 -1°C° 0 mm 2 mps 730 mmHg 87%
    04:00 -1°C° 0 mm 2 mps 729 mmHg 89%
    05:00 -1°C° 0 mm 2 mps 729 mmHg 91%
    06:00 0°C° 0 mm 1 mps 729 mmHg 94%
    07:00 -1°C° 0 mm 2 mps 729 mmHg 90%
    08:00 +1°C° 0 mm 2 mps 729 mmHg 87%
    09:00 +1°C° 0 mm 3 mps 729 mmHg 84%
    10:00 +2°C° 0 mm 3 mps 729 mmHg 78%
    11:00 +4°C° 0 mm 4 mps 729 mmHg 71%
    12:00 +6°C° 0 mm 5 mps 729 mmHg 65%
    13:00 +6°C° 0 mm 5 mps 729 mmHg 64%
    14:00 +5°C° 0 mm 6 mps 728 mmHg 63%
    15:00 +7°C° 0 mm 6 mps 728 mmHg 63%
    16:00 +5°C° 0 mm 5 mps 728 mmHg 67%
    17:00 +4°C° 0 mm 4 mps 728 mmHg 72%
    18:00 +3°C° 0 mm 3 mps 728 mmHg 77%
    19:00 +2°C° 0 mm 3 mps 728 mmHg 78%
    20:00 +2°C° 0 mm 3 mps 729 mmHg 79%
    21:00 +2°C° 0 mm 3 mps 729 mmHg 81%
    22:00 +2°C° 0 mm 3 mps 729 mmHg 80%
    23:00 +2°C° 0 mm 3 mps 729 mmHg 79%

    24 November, Sunday

    Time Temperature Precipitation Wind Pressure Humidity
    00:00 +2°C° 0 mm 3 mps 729 mmHg 78%
    01:00 +2°C° 0 mm 3 mps 729 mmHg 77%
    02:00 +2°C° 0 mm 3 mps 729 mmHg 75%
    03:00 +1°C° 0 mm 3 mps 729 mmHg 74%
    04:00 +1°C° 0 mm 3 mps 729 mmHg 73%
    05:00 +1°C° 0 mm 3 mps 728 mmHg 72%
    06:00 +1°C° 0 mm 3 mps 728 mmHg 71%
    07:00 +2°C° 0 mm 3 mps 728 mmHg 66%
    08:00 +3°C° 0 mm 3 mps 728 mmHg 62%
    09:00 +4°C° 0 mm 3 mps 728 mmHg 57%
    10:00 +7°C° 0 mm 3 mps 728 mmHg 52%
    11:00 +8°C° 0 mm 4 mps 727 mmHg 47%
    12:00 +10°C° 0 mm 5 mps 727 mmHg 42%
    13:00 +12°C° 0 mm 5 mps 727 mmHg 41%
    14:00 +13°C° 0 mm 5 mps 726 mmHg 40%
    15:00 +14°C° 0 mm 5 mps 725 mmHg 39%
    16:00 +12°C° 0 mm 5 mps 725 mmHg 45%
    17:00 +9°C° 0 mm 5 mps 725 mmHg 51%
    18:00 +7°C° 0 mm 4 mps 724 mmHg 58%
    19:00 +7°C° 0 mm 4 mps 724 mmHg 62%
    20:00 +7°C° 0 mm 4 mps 724 mmHg 65%
    21:00 +6°C° 0 mm 5 mps 724 mmHg 69%
    22:00 +6°C° 0 mm 4 mps 724 mmHg 70%
    23:00 +6°C° 0 mm 4 mps 724 mmHg 72%

    25 November, Monday

    Time Temperature Precipitation Wind Pressure Humidity
    00:00 +6°C° 0 mm 4 mps 723 mmHg 73%
    01:00 +5°C° 0 mm 4 mps 723 mmHg 73%
    02:00 +5°C° 0 mm 4 mps 723 mmHg 73%
    03:00 +5°C° 0 mm 4 mps 722 mmHg 73%
    04:00 +5°C° 0 mm 4 mps 722 mmHg 72%
    05:00 +5°C° 0 mm 4 mps 722 mmHg 71%
    06:00 +4°C° 0 mm 4 mps 722 mmHg 70%
    07:00 +5°C° 0 mm 4 mps 722 mmHg 65%
    08:00 +6°C° 0 mm 4 mps 723 mmHg 60%
    09:00 +7°C° 0 mm 4 mps 723 mmHg 56%
    10:00 +8°C° 0 mm 4 mps 723 mmHg 52%
    11:00 +11°C° 0 mm 4 mps 723 mmHg 48%
    12:00 +13°C° 0 mm 4 mps 723 mmHg 44%
    13:00 +13°C° 0 mm 4 mps 722 mmHg 45%
    14:00 +13°C° 0 mm 4 mps 722 mmHg 45%
    15:00 +13°C° 0 mm 3 mps 722 mmHg 46%
    16:00 +11°C° 0 mm 3 mps 722 mmHg 50%
    17:00 +10°C° 0 mm 4 mps 722 mmHg 54%
    18:00 +7°C° 0 mm 4 mps 722 mmHg 58%
    19:00 +7°C° 0 mm 3 mps 722 mmHg 60%
    20:00 +7°C° 0 mm 3 mps 722 mmHg 62%
    21:00 +5°C° 0 mm 3 mps 722 mmHg 63%
    22:00 +4°C° 0 mm 4 mps 722 mmHg 66%
    23:00 +4°C° 0 mm 4 mps 722 mmHg 68%

    26 November, Tuesday

    Time Temperature Precipitation Wind Pressure Humidity
    00:00 +3°C° 0 mm 5 mps 721 mmHg 71%
    01:00 +3°C° 0 mm 5 mps 721 mmHg 71%
    02:00 +3°C° 0 mm 6 mps 720 mmHg 71%
    03:00 +3°C° 0 mm 6 mps 719 mmHg 72%
    04:00 +3°C° 0 mm 6 mps 719 mmHg 72%
    05:00 +3°C° 0 mm 7 mps 718 mmHg 73%
    06:00 +3°C° 0 mm 7 mps 718 mmHg 73%
    07:00 +2°C° 0.4 mm 7 mps 718 mmHg 78%
    08:00 +2°C° 0.4 mm 7 mps 718 mmHg 83%
    09:00 0°C° 0.4 mm 8 mps 718 mmHg 88%
    10:00 0°C° 1.8 mm 9 mps 719 mmHg 91%
    11:00 -2°C° 1.8 mm 10 mps 720 mmHg 93%
    12:00 -3°C° 1.8 mm 11 mps 721 mmHg 95%
    13:00 -2°C° 0.3 mm 10 mps 723 mmHg 92%
    14:00 -2°C° 0.3 mm 10 mps 724 mmHg 88%
    15:00 0°C° 0.3 mm 9 mps 726 mmHg 84%
    16:00 -1°C° 0 mm 8 mps 727 mmHg 83%
    17:00 -1°C° 0 mm 6 mps 728 mmHg 81%
    18:00 0°C° 0 mm 5 mps 728 mmHg 79%
    19:00 -1°C° 0 mm 4 mps 730 mmHg 80%
    20:00 0°C° 0 mm 3 mps 731 mmHg 81%
    21:00 -1°C° 0 mm 3 mps 732 mmHg 82%
    22:00 -1°C° 0 mm 3 mps 733 mmHg 82%
    23:00 -1°C° 0 mm 2 mps 733 mmHg 82%
    Show more